• In Uzbekistan
  • List of Countries
  • For 7 days
  • Water Temperature
  • Weather Map
  • Weather Widgets
  • user-avatar
    Login

    Hourly Weather Sayat

    Today, 17 October, Thursday

    Time Temperature Precipitation Wind Pressure Humidity
    00:00 +15°C° 0 mm 4 mps 747 mmHg 40%
    01:00 +14°C° 0 mm 4 mps 747 mmHg 42%
    02:00 +14°C° 0 mm 4 mps 747 mmHg 44%
    03:00 +14°C° 0 mm 4 mps 747 mmHg 46%
    04:00 +14°C° 0 mm 4 mps 747 mmHg 49%
    05:00 +14°C° 0 mm 4 mps 748 mmHg 48%
    06:00 +14°C° 0 mm 4 mps 748 mmHg 48%
    07:00 +15°C° 0 mm 4 mps 749 mmHg 47%
    08:00 +19°C° 0 mm 4 mps 749 mmHg 40%
    09:00 +22°C° 0 mm 5 mps 749 mmHg 33%
    10:00 +24°C° 0 mm 6 mps 749 mmHg 26%
    11:00 +26°C° 0 mm 6 mps 749 mmHg 23%
    12:00 +27°C° 0 mm 6 mps 749 mmHg 20%
    13:00 +28°C° 0 mm 6 mps 748 mmHg 18%
    14:00 +28°C° 0 mm 6 mps 748 mmHg 18%
    15:00 +28°C° 0 mm 6 mps 748 mmHg 18%
    16:00 +27°C° 0 mm 6 mps 748 mmHg 18%
    17:00 +25°C° 0 mm 5 mps 748 mmHg 21%
    18:00 +22°C° 0 mm 5 mps 749 mmHg 24%
    19:00 +20°C° 0 mm 5 mps 749 mmHg 27%
    20:00 +19°C° 0 mm 5 mps 749 mmHg 31%
    21:00 +17°C° 0 mm 5 mps 749 mmHg 34%
    22:00 +16°C° 0 mm 5 mps 749 mmHg 37%
    23:00 +15°C° 0 mm 5 mps 749 mmHg 43%

    Tomorrow, 18 October, Friday

    Time Temperature Precipitation Wind Pressure Humidity
    00:00 +14°C° 0 mm 5 mps 749 mmHg 50%
    01:00 +13°C° 0 mm 6 mps 749 mmHg 56%
    02:00 +11°C° 0 mm 6 mps 749 mmHg 51%
    03:00 +11°C° 0 mm 6 mps 749 mmHg 46%
    04:00 +10°C° 0 mm 6 mps 749 mmHg 41%
    05:00 +10°C° 0 mm 6 mps 749 mmHg 38%
    06:00 +10°C° 0 mm 7 mps 749 mmHg 35%
    07:00 +10°C° 0 mm 7 mps 749 mmHg 32%
    08:00 +14°C° 0 mm 7 mps 749 mmHg 28%
    09:00 +17°C° 0 mm 7 mps 749 mmHg 24%
    10:00 +20°C° 0 mm 7 mps 749 mmHg 20%
    11:00 +22°C° 0 mm 6 mps 749 mmHg 18%
    12:00 +23°C° 0 mm 6 mps 748 mmHg 16%
    13:00 +26°C° 0 mm 6 mps 748 mmHg 13%
    14:00 +24°C° 0 mm 6 mps 747 mmHg 13%
    15:00 +24°C° 0 mm 6 mps 747 mmHg 12%
    16:00 +23°C° 0 mm 7 mps 746 mmHg 12%
    17:00 +21°C° 0 mm 6 mps 746 mmHg 14%
    18:00 +19°C° 0 mm 6 mps 746 mmHg 16%
    19:00 +16°C° 0 mm 6 mps 746 mmHg 18%
    20:00 +15°C° 0 mm 5 mps 746 mmHg 19%
    21:00 +14°C° 0 mm 5 mps 746 mmHg 21%
    22:00 +13°C° 0 mm 4 mps 746 mmHg 22%
    23:00 +13°C° 0 mm 4 mps 745 mmHg 27%

    Day after tomorrow, 19 October, Saturday

    Time Temperature Precipitation Wind Pressure Humidity
    00:00 +12°C° 0 mm 3 mps 745 mmHg 32%
    01:00 +13°C° 0 mm 2 mps 745 mmHg 38%
    02:00 +12°C° 0 mm 2 mps 745 mmHg 40%
    03:00 +12°C° 0 mm 2 mps 745 mmHg 43%
    04:00 +10°C° 0 mm 2 mps 745 mmHg 45%
    05:00 +12°C° 0 mm 2 mps 745 mmHg 43%
    06:00 +13°C° 0 mm 2 mps 745 mmHg 41%
    07:00 +14°C° 0 mm 1 mps 745 mmHg 39%
    08:00 +16°C° 0 mm 1 mps 746 mmHg 33%
    09:00 +20°C° 0 mm 1 mps 746 mmHg 27%
    10:00 +23°C° 0 mm 1 mps 746 mmHg 21%
    11:00 +24°C° 0 mm 1 mps 746 mmHg 17%
    12:00 +26°C° 0 mm 2 mps 745 mmHg 14%
    13:00 +27°C° 0 mm 3 mps 745 mmHg 11%
    14:00 +27°C° 0 mm 3 mps 745 mmHg 11%
    15:00 +27°C° 0 mm 3 mps 744 mmHg 11%
    16:00 +27°C° 0 mm 2 mps 744 mmHg 11%
    17:00 +24°C° 0 mm 3 mps 744 mmHg 15%
    18:00 +21°C° 0 mm 3 mps 745 mmHg 18%
    19:00 +18°C° 0 mm 3 mps 745 mmHg 22%
    20:00 +17°C° 0 mm 3 mps 745 mmHg 25%
    21:00 +16°C° 0 mm 3 mps 745 mmHg 27%
    22:00 +15°C° 0 mm 2 mps 745 mmHg 30%
    23:00 +14°C° 0 mm 2 mps 745 mmHg 30%

    20 October, Sunday

    Time Temperature Precipitation Wind Pressure Humidity
    00:00 +13°C° 0 mm 2 mps 745 mmHg 31%
    01:00 +13°C° 0 mm 2 mps 745 mmHg 32%
    02:00 +12°C° 0 mm 2 mps 745 mmHg 31%
    03:00 +12°C° 0 mm 2 mps 745 mmHg 31%
    04:00 +12°C° 0 mm 2 mps 745 mmHg 30%
    05:00 +12°C° 0 mm 2 mps 745 mmHg 29%
    06:00 +13°C° 0 mm 2 mps 746 mmHg 27%
    07:00 +13°C° 0 mm 2 mps 746 mmHg 25%
    08:00 +16°C° 0 mm 2 mps 746 mmHg 22%
    09:00 +19°C° 0 mm 2 mps 747 mmHg 19%
    10:00 +21°C° 0 mm 2 mps 747 mmHg 16%
    11:00 +24°C° 0 mm 3 mps 747 mmHg 14%
    12:00 +25°C° 0 mm 3 mps 746 mmHg 11%
    13:00 +26°C° 0 mm 4 mps 746 mmHg 9%
    14:00 +26°C° 0 mm 4 mps 746 mmHg 9%
    15:00 +25°C° 0 mm 4 mps 746 mmHg 8%
    16:00 +25°C° 0 mm 4 mps 746 mmHg 8%
    17:00 +21°C° 0 mm 4 mps 746 mmHg 10%
    18:00 +19°C° 0 mm 4 mps 746 mmHg 12%
    19:00 +17°C° 0 mm 4 mps 746 mmHg 14%
    20:00 +16°C° 0 mm 3 mps 746 mmHg 16%
    21:00 +14°C° 0 mm 3 mps 747 mmHg 18%
    22:00 +12°C° 0 mm 3 mps 747 mmHg 20%
    23:00 +12°C° 0 mm 3 mps 747 mmHg 22%

    21 October, Monday

    Time Temperature Precipitation Wind Pressure Humidity
    00:00 +12°C° 0 mm 2 mps 747 mmHg 24%
    01:00 +10°C° 0 mm 2 mps 747 mmHg 26%
    02:00 +10°C° 0 mm 2 mps 747 mmHg 27%
    03:00 +9°C° 0 mm 2 mps 747 mmHg 28%
    04:00 +9°C° 0 mm 2 mps 747 mmHg 29%
    05:00 +10°C° 0 mm 2 mps 747 mmHg 28%
    06:00 +11°C° 0 mm 3 mps 747 mmHg 27%
    07:00 +11°C° 0 mm 3 mps 748 mmHg 26%
    08:00 +14°C° 0 mm 3 mps 748 mmHg 23%
    09:00 +18°C° 0 mm 3 mps 748 mmHg 19%
    10:00 +21°C° 0 mm 3 mps 748 mmHg 15%
    11:00 +24°C° 0 mm 3 mps 748 mmHg 14%
    12:00 +25°C° 0 mm 3 mps 748 mmHg 12%
    13:00 +26°C° 0 mm 3 mps 747 mmHg 11%
    14:00 +25°C° 0 mm 4 mps 747 mmHg 11%
    15:00 +25°C° 0 mm 4 mps 747 mmHg 12%
    16:00 +23°C° 0 mm 5 mps 746 mmHg 12%
    17:00 +21°C° 0 mm 5 mps 747 mmHg 15%
    18:00 +19°C° 0 mm 5 mps 747 mmHg 19%
    19:00 +16°C° 0 mm 5 mps 747 mmHg 23%
    20:00 +15°C° 0 mm 5 mps 747 mmHg 25%
    21:00 +15°C° 0 mm 5 mps 747 mmHg 27%
    22:00 +14°C° 0 mm 5 mps 747 mmHg 29%
    23:00 +14°C° 0 mm 6 mps 747 mmHg 33%

    22 October, Tuesday

    Time Temperature Precipitation Wind Pressure Humidity
    00:00 +13°C° 0 mm 6 mps 747 mmHg 36%
    01:00 +11°C° 0 mm 6 mps 747 mmHg 39%
    02:00 +11°C° 0 mm 6 mps 747 mmHg 41%
    03:00 +10°C° 0 mm 6 mps 747 mmHg 44%
    04:00 +9°C° 0 mm 6 mps 747 mmHg 47%
    05:00 +9°C° 0 mm 6 mps 747 mmHg 46%
    06:00 +10°C° 0 mm 6 mps 748 mmHg 46%
    07:00 +10°C° 0 mm 6 mps 748 mmHg 45%
    08:00 +14°C° 0 mm 7 mps 748 mmHg 38%
    09:00 +16°C° 0 mm 7 mps 748 mmHg 31%
    10:00 +20°C° 0 mm 8 mps 748 mmHg 24%
    11:00 +21°C° 0 mm 8 mps 748 mmHg 23%
    12:00 +22°C° 0 mm 8 mps 748 mmHg 21%
    13:00 +23°C° 0 mm 8 mps 748 mmHg 19%
    14:00 +23°C° 0 mm 8 mps 748 mmHg 19%
    15:00 +22°C° 0 mm 7 mps 748 mmHg 20%
    16:00 +22°C° 0 mm 7 mps 747 mmHg 21%
    17:00 +20°C° 0 mm 7 mps 748 mmHg 24%
    18:00 +17°C° 0 mm 6 mps 748 mmHg 27%
    19:00 +15°C° 0 mm 5 mps 748 mmHg 30%
    20:00 +14°C° 0 mm 5 mps 748 mmHg 32%
    21:00 +13°C° 0 mm 5 mps 748 mmHg 33%
    22:00 +12°C° 0 mm 5 mps 749 mmHg 34%
    23:00 +12°C° 0 mm 5 mps 749 mmHg 34%
    Show more